Home > Time Zones > World Clock > Weather > India > Theni > Past weeks

Flag for India Weather past 2 weeks in Theni, Tamil Nadu, India

Now
90 °F

Scattered clouds.


Feels Like: 95 °F
Forecast: 74 / 96 °F
Wind: 12 mph from South

Location: Coimbatore / Peelamedu

Current Time: Jul 4, 2015 at 2:34:19 PM

Latest Report: Jul 4, 2015 at 2:00 PM


Visibility: 4 mi

Pressure: 29.86 "Hg

Humidity: 52%

Dew point: 70 °F

Location of TheniLocation

Historic Weather in Theni — Graph

°F

Theni temperature yesterday

Maximum temperature yesterday: 93 °F (at 2:30 PM)
Minimum temperature yesterday: 75 °F (at 2:30 AM)
Average temperature yesterday: 83 °F

Past Weeks' High & Low Weather Summary

 TemperatureHumidityPressure
High93 °F (Jul 2, 2:00 PM)94% (Jun 23, 2:30 AM)29.98 "Hg (Jun 23, 2:30 AM)
Low73 °F (Jun 21, 9:00 PM)43% (Jun 20, 2:00 PM)26.52 "Hg (Jun 30, 8:00 AM)
Average81 °F73%29.84 "Hg
* Reported Jun 19 12:30 PM — Jul 4 1:00 PM, Theni, Weather by CustomWeather, © 2015

Note: Actual official high and low records may vary slightly from our data, if they occured in-between our weather recording intervals... More about our weather records

Advertising

Theni weather history for previous 24 hours

 ConditionsComfort  
Time TempWeatherWind HumidityBarometerVisibility
1:00 PM
Sat, Jul 4
91 °FPassing clouds.8 mph49%29.89 "Hg4 mi
12:30 PM91 °FScattered clouds.16 mph49%29.89 "Hg4 mi
12:00 PM90 °FScattered clouds.14 mph52%29.92 "Hg4 mi
11:30 AM90 °FScattered clouds.14 mph52%29.92 "Hg4 mi
11:00 AM88 °FPassing clouds.14 mph55%29.95 "Hg4 mi
10:30 AM86 °FPassing clouds.12 mph62%29.95 "Hg4 mi
9:30 AM84 °FHaze.5 mph66%29.95 "Hg3 mi
9:00 AM82 °FHaze.7 mph70%29.95 "Hg3 mi
8:30 AM81 °FHaze.9 mph74%29.95 "Hg3 mi
8:00 AM81 °FFog.9 mph79%29.95 "Hg3 mi
7:30 AM79 °FHaze.10 mph79%29.92 "Hg3 mi
7:00 AM77 °FFog.6 mph83%29.92 "Hg3 mi
6:30 AM77 °FFog.7 mph89%29.92 "Hg3 mi
6:00 AM75 °FFog.7 mph89%29.89 "Hg3 mi
5:30 AM75 °FFog.9 mph89%29.89 "Hg3 mi
5:00 AM75 °FFog.7 mph89%29.89 "Hg3 mi
4:30 AM75 °FFog.8 mph89%29.89 "Hg3 mi
4:00 AM77 °FFog.8 mph83%29.89 "Hg3 mi
3:30 AM77 °FFog.8 mph83%29.89 "Hg3 mi
2:30 AM77 °FFog.6 mph83%29.89 "Hg3 mi
1:30 AM77 °FPassing clouds.7 mph83%29.92 "Hg3 mi
12:30 AM79 °FPassing clouds.7 mph79%29.92 "Hg3 mi
11:30 PM
Fri, Jul 3
79 °FPassing clouds.12 mph79%29.95 "Hg3 mi
10:00 PM81 °FPassing clouds.13 mph70%29.92 "Hg4 mi
9:30 PM81 °FPassing clouds.13 mph70%29.92 "Hg4 mi
9:00 PM81 °FPassing clouds.12 mph70%29.92 "Hg4 mi
8:30 PM81 °FPassing clouds.12 mph70%29.92 "Hg4 mi
8:00 PM81 °FPassing clouds.12 mph74%29.92 "Hg4 mi
7:30 PM82 °FPassing clouds.9 mph70%29.89 "Hg4 mi
7:00 PM82 °FPassing clouds.12 mph70%29.89 "Hg4 mi
6:30 PM84 °FPassing clouds.10 mph66%29.89 "Hg4 mi
6:00 PM86 °FPassing clouds.12 mph59%29.86 "Hg4 mi
5:30 PM88 °FPassing clouds.14 mph55%29.86 "Hg4 mi
4:30 PM91 °FPassing clouds.9 mph49%29.86 "Hg5 mi
4:00 PM93 °FPassing clouds.12 mph44%29.86 "Hg5 mi
3:30 PM93 °FPassing clouds.12 mph44%29.83 "Hg4 mi
3:00 PM93 °FPassing clouds.12 mph44%29.86 "Hg4 mi
2:30 PM93 °FPassing clouds.14 mph44%29.86 "Hg4 mi
Weather by CustomWeather, © 2015

See weather overviewHow to use our weather pages